This demonstration page uses our WeatherBlox Daily Observations layout. Learn more.

Left ArrowRight Arrow

Hourly Observations for October 17, 2018

Temp ( °F °C ) Dew Point ( °F °C ) Humidity (%) Winds ( mph kmh ) Pressure ( in mb ) Visibility ( mi km ) Precip ( " mm )
12:51 am 00:51 Cloudy 51 10.6 42 5.6 71 71 SE 6 9 30.17 1022 10 16 0.00 0.00
1:51 am 01:51 Cloudy 51 10.6 43 6.1 74 74 ESE 8 13 30.17 1022 10 16 0.00 0.00
2:51 am 02:51 Cloudy 51 10.6 42 5.6 71 71 ESE 6 9 30.16 1021 10 16 0.00 0.00
3:51 am 03:51 Cloudy 51 10.6 41 5 69 69 SE 9 15 30.16 1021 10 16 0.00 0.00
4:51 am 04:51 Cloudy 51 10.6 41 5 69 69 SE 10 17 30.16 1021 10 16 0.00 0.00
5:51 am 05:51 Cloudy 51 10.6 41 5 69 69 SE 9 15 30.17 1022 10 16 0.00 0.00
6:51 am 06:51 Cloudy 51 10.6 40 4.4 66 66 SE 10 17 30.18 1022 10 16 0.00 0.00
7:51 am 07:51 Cloudy 51 10.6 41 5 69 69 SE 10 17 30.20 1023 10 16 0.00 0.00
8:51 am 08:51 Cloudy 53 11.7 41 5 64 64 SE 14 22 30.21 1023 10 16 0.00 0.00
9:51 am 09:51 Cloudy 55 12.8 41 5 59 59 SE 15 24 30.21 1023 10 16 0.00 0.00
10:51 am 10:51 Cloudy 57 13.9 41 5 55 55 SE 18 30 30.20 1023 10 16 0.00 0.00
11:51 am 11:51 Cloudy 59 15 42 5.6 54 54 SSE 16 26 30.18 1022 10 16 0.00 0.00
12:51 pm 12:51 Mostly Sunny 61 16.1 43 6.1 52 52 SSE 20 31 30.14 1021 10 16 0.00 0.00
1:51 pm 13:51 Mostly Sunny 62 16.7 43 6.1 50 50 SSE 22 35 30.11 1020 10 16 0.00 0.00
2:51 pm 14:51 Cloudy 61 16.1 42 5.6 50 50 SSE 20 31 30.12 1020 10 16 0.00 0.00
3:51 pm 15:51 Cloudy 61 16.1 42 5.6 50 50 SSE 20 31 30.12 1020 10 16 0.00 0.00
4:51 pm 16:51 Mostly Sunny 58 14.4 43 6.1 58 58 SE 16 26 30.13 1020 10 16 0.00 0.00
5:51 pm 17:51 Clear 56 13.3 44 6.7 65 65 SE 13 20 30.14 1021 10 16 0.00 0.00
6:51 pm 18:51 Clear 55 12.8 44 6.7 67 67 SSE 12 19 30.15 1021 10 16 0.00 0.00
7:51 pm 19:51 Mostly Clear 54 12.2 45 7.2 72 72 ESE 12 19 30.17 1022 10 16 0.00 0.00
8:51 pm 20:51 Mostly Cloudy 54 12.2 45 7.2 72 72 E 10 17 30.17 1022 10 16 0.00 0.00
9:51 pm 21:51 Cloudy 54 12.2 45 7.2 72 72 E 12 19 30.17 1022 10 16 0.00 0.00
10:51 pm 22:51 Cloudy 54 12.2 46 7.8 75 75 SSE 8 13 30.16 1022 10 16 0.00 0.00
11:51 pm 23:51 Cloudy 56 13.3 46 7.8 70 70 SE 13 20 30.15 1021 10 16 0.00 0.00

Powered by AerisWeather